This demonstration page uses our WeatherBlox Daily Observations layout. Learn more.

Left ArrowRight Arrow

39.51506, -84.39828

Hourly Observations for April 29, 2019

Temp ( °F °C ) Dew Point ( °F °C ) Humidity (%) Winds ( mph kmh ) Pressure ( in mb ) Visibility ( mi km ) Precip ( " mm )
12:15 am 00:15 Clear 41 5.2 40 4.5 95 95 ENE 6 9 30.25 1024 10 16 0.00 0.00
12:35 am 00:35 Clear 43 6.1 41 5 93 93 ENE 5 7 30.25 1024 10 16 0.00 0.00
12:55 am 00:55 Clear 43 6.1 40 4.3 88 88 NE 5 7 30.25 1024 10 16 0.00 0.00
1:15 am 01:15 Partly Cloudy 43 6.1 40 4.7 91 91 NE 3 6 30.25 1024 10 16 0.00 0.00
1:35 am 01:35 Clear 44 6.5 41 4.9 90 90 Calm 30.26 1025 10 16 0.00 0.00
1:55 am 01:55 Clear 42 5.4 40 4.3 93 93 Calm 30.25 1024 10 16 0.00 0.00
2:15 am 02:15 Clear 43 5.9 41 4.8 93 93 NNE 3 6 30.24 1024 10 16 0.00 0.00
2:35 am 02:35 Clear 43 5.9 40 4.7 92 92 Calm 30.24 1024 10 16 0.00 0.00
2:55 am 02:55 Clear 42 5.3 40 4.4 94 94 NE 5 7 30.22 1023 10 16 0.00 0.00
3:15 am 03:15 Clear 43 5.9 41 4.9 93 93 NNE 3 6 30.22 1023 10 16 0.00 0.00
3:35 am 03:35 Clear 43 5.9 41 4.9 93 93 ENE 3 6 30.22 1023 10 16 0.00 0.00
3:55 am 03:55 Clear 40 4.7 39 3.8 94 94 ENE 6 9 30.22 1023 10 16 0.00 0.00
4:15 am 04:15 Clear 42 5.3 40 4.4 94 94 NE 6 9 30.22 1023 10 16 0.00 0.00
4:35 am 04:35 Clear 42 5.5 40 4.5 93 93 Calm 30.22 1023 10 16 0.00 0.00
4:55 am 04:55 Clear 42 5.6 40 4.3 91 91 NE 3 6 30.22 1023 10 16 0.00 0.00
5:15 am 05:15 Clear 42 5.3 40 4.5 95 95 Calm 30.21 1023 10 16 0.00 0.00
5:35 am 05:35 Clear 42 5.7 41 5 95 95 ENE 5 7 30.20 1023 10 16 0.00 0.00
5:55 am 05:55 Clear 43 6 41 5.1 94 94 NE 5 7 30.20 1023 10 16 0.00 0.00
6:15 am 06:15 Clear 43 6.3 41 5.1 92 92 NNE 5 7 30.19 1022 10 16 0.00 0.00
6:35 am 06:35 Clear 44 6.4 41 5 91 91 NE 6 9 30.20 1023 10 16 0.00 0.00
6:55 am 06:55 Sunny 44 6.5 41 5.2 92 92 NE 6 9 30.19 1022 10 16 0.00 0.00
7:15 am 07:15 Sunny 44 6.8 41 5.2 90 90 ENE 7 11 30.19 1022 10 16 0.00 0.00
7:35 am 07:35 Sunny 45 7.3 42 5.4 88 88 NE 6 9 30.20 1023 10 16 0.00 0.00
7:55 am 07:55 Sunny 46 7.7 42 5.5 86 86 ENE 7 11 30.19 1023 10 16 0.00 0.00
8:15 am 08:15 Sunny 47 8.1 42 5.7 85 85 ENE 5 7 30.20 1023 10 16 0.00 0.00
8:35 am 08:35 Sunny 48 8.7 43 5.9 83 83 E 8 13 30.19 1022 10 16 0.00 0.00
8:55 am 08:55 Sunny 48 9 43 6 82 82 ESE 5 7 30.18 1022 10 16 0.00 0.00
9:15 am 09:15 Sunny 50 9.8 43 6.1 78 78 E 9 15 30.17 1022 10 16 0.00 0.00
9:35 am 09:35 Partly Cloudy 52 10.9 44 6.6 75 75 E 7 11 30.17 1022 10 16 0.00 0.00
9:55 am 09:55 Sunny 51 10.5 43 6.2 75 75 ESE 7 11 30.16 1021 10 16 0.00 0.00
10:15 am 10:15 Sunny 52 11.2 44 6.7 74 74 ESE 9 15 30.14 1021 10 16 0.00 0.00
10:35 am 10:35 Sunny 54 12.2 45 7.4 73 73 SE 7 11 30.13 1020 10 16 0.00 0.00
10:55 am 10:55 Sunny 55 12.9 46 7.5 70 70 SE 9 15 30.10 1019 10 16 0.00 0.00
11:15 am 11:15 Sunny 58 14.6 47 8.6 67 67 SSE 9 15 30.10 1019 10 16 0.00 0.00
11:35 am 11:35 Sunny 60 15.3 48 9 66 66 S 13 20 30.12 1020 10 16 0.00 0.00
11:55 am 11:55 Mostly Cloudy 59 14.8 48 8.8 68 68 S 9 15 30.10 1019 10 16 0.00 0.00
12:15 pm 12:15 Mostly Cloudy 60 15.8 49 9.6 67 67 S 6 9 30.09 1019 10 16 0.00 0.00
12:35 pm 12:35 Sunny 62 16.7 50 10.1 65 65 S 8 13 30.05 1018 10 16 0.00 0.00
12:55 pm 12:55 Sunny 63 17.4 50 10.2 63 63 S 10 17 30.04 1017 10 16 0.00 0.00
1:15 pm 13:15 Sunny 64 17.7 51 10.3 62 62 S 10 17 30.03 1017 10 16 0.00 0.00
1:35 pm 13:35 Partly Cloudy 65 18.3 51 10.4 60 60 S 12 19 30.03 1017 10 16 0.00 0.00
1:55 pm 13:55 Mostly Cloudy 65 18.6 52 11.3 63 63 S 15 24 30.01 1016 10 16 0.00 0.00
2:15 pm 14:15 Mostly Cloudy 66 18.7 53 11.4 63 63 SSW 15 24 30.01 1016 10 16 0.00 0.00
2:35 pm 14:35 Sunny 67 19.6 54 12.2 62 62 S 14 22 29.97 1015 10 16 0.00 0.00
2:55 pm 14:55 Partly Cloudy 68 20.1 56 13.2 65 65 S 10 17 29.95 1014 10 16 0.00 0.00
3:15 pm 15:15 Sunny 71 21.9 58 14.7 64 64 S 15 24 29.93 1014 10 16 0.00 0.00
3:35 pm 15:35 Sunny 73 22.8 58 14.7 60 60 S 18 30 29.91 1013 10 16 0.00 0.00
3:55 pm 15:55 Sunny 74 23.2 59 15.2 61 61 SSW 14 22 29.92 1013 10 16 0.00 0.00
4:15 pm 16:15 Mostly Cloudy 73 22.9 59 15.1 62 62 SW 18 30 29.94 1014 10 16 0.00 0.00
4:35 pm 16:35 Mostly Cloudy 75 23.7 60 15.4 60 60 SW 17 28 29.95 1014 10 16 0.00 0.00
4:55 pm 16:55 Partly Cloudy 75 23.7 60 15.3 59 59 SW 16 26 29.95 1014 10 16 0.00 0.00
5:15 pm 17:15 Partly Cloudy 75 23.9 59 15 58 58 SW 18 30 29.96 1014 10 16 0.00 0.00
5:35 pm 17:35 Partly Cloudy 77 24.8 58 14.3 52 52 SW 17 28 29.94 1014 10 16 0.00 0.00
5:55 pm 17:55 Partly Cloudy 77 25.1 57 13.7 49 49 SW 16 26 29.95 1014 10 16 0.00 0.00
6:15 pm 18:15 Sunny 77 25 57 13.7 50 50 WSW 18 30 29.95 1014 10 16 0.00 0.00
6:35 pm 18:35 Partly Cloudy 75 24 56 13.1 51 51 WSW 17 28 29.97 1015 10 16 0.00 0.00
6:55 pm 18:55 Cloudy 75 23.8 55 12.9 51 51 WSW 16 26 29.98 1015 10 16 0.00 0.00
7:15 pm 19:15 Mostly Cloudy 74 23.5 54 12.3 50 50 WSW 15 24 29.98 1015 10 16 0.00 0.00
7:35 pm 19:35 Cloudy 74 23.1 55 12.7 52 52 WSW 10 17 29.99 1015 10 16 0.00 0.00
7:55 pm 19:55 Cloudy 73 22.8 55 12.8 53 53 WSW 12 19 30.00 1016 10 16 0.00 0.00
8:15 pm 20:15 Cloudy 73 22.5 55 13 55 55 WSW 10 17 30.00 1016 10 16 0.00 0.00
8:35 pm 20:35 Cloudy 72 22.1 56 13.2 57 57 WSW 12 19 30.01 1016 10 16 0.00 0.00
8:55 pm 20:55 Mostly Cloudy 71 21.6 56 13.5 60 60 W 10 17 30.02 1017 10 16 0.00 0.00
9:15 pm 21:15 Partly Cloudy 68 20.2 58 14.2 69 69 NW 10 17 30.04 1017 10 16 0.00 0.00
9:35 pm 21:35 Clear 66 18.9 58 14.3 75 75 NW 9 15 30.06 1018 10 16 0.00 0.00
9:55 pm 21:55 Clear 65 18.2 57 14.1 77 77 NW 10 17 30.08 1019 10 16 0.00 0.00
10:15 pm 22:15 Clear 63 17.4 57 14 81 81 NNE 6 9 30.09 1019 10 16 0.00 0.00
10:35 pm 22:35 Clear 61 16.3 56 13.5 84 84 NNE 6 9 30.10 1019 10 16 0.00 0.00
10:55 pm 22:55 Clear 60 15.6 55 12.9 84 84 NE 5 7 30.12 1020 10 16 0.00 0.00
11:15 pm 23:15 Clear 59 15.2 55 12.5 84 84 Calm 30.13 1020 10 16 0.00 0.00
11:35 pm 23:35 Clear 58 14.5 54 12.2 86 86 N 6 9 30.14 1021 10 16 0.00 0.00
11:55 pm 23:55 Clear 58 14.2 53 11.9 86 86 N 7 11 30.14 1021 10 16 0.00 0.00

Powered by AerisWeather